User: anonymous   Login
Location: ??????
(41.3164°N, 22.6615°E)
Time: 20:00:08
(UTC+00:00)
Language:

Okean O Rocket - Orbit

View from above orbital plane
View from above orbital plane
View from above satellite
View from above satellite

Ground track
Ground track

The orbit data is extracted from the following two-line orbital elements,

1 25861U 99039B   22016.80423984  .00000216  00000-0  36834-4 0  9998
2 25861  98.1928  41.1824 0016916  99.6264  73.5244 14.78704941213084
Epoch (UTC): 16 January 2022 19:18:06
Eccentricity: 0.0016916
inclination: 98.1928°
perigee height: 621 km
apogee height: 645 km
right ascension of ascending node: 41.1824°
argument of perigee: 99.6264°
revolutions per day: 14.78704941
mean anomaly at epoch: 73.5244°
orbit number at epoch: 21308

The dashed part of the orbit path shows where the satellite is in the earth's shadow,  

DLR